BREEZE-M DEB, 48532

Orbit data source: Space-Track

BREEZE-M DEB, 48532 is space debris in HEO originally from a launch on Fri, 14 Mar 2008 UTC launched from the Tyuratam Missile And Space Complex (TTMTR). Debris objects in space refer to the collection of defunct objects orbiting the Earth. Examples of debris include non-operational satellites, rocket bodies, and fragments generated from explosions, collisions, or faulty payload assembly.

Loading next visibility...
Identifier
48532, 2008-011DX
Orbit
HEO
Country
Flag of CISCIS
Related business
Manufacturer
Unknown
Mission
Spacecraft
Bus & Motor
Unknown
Mass
Unknown
Launch date (UTC)
2008-03-14 (18 years ago)
Launch vehicle
Unknown
Launch site
Tyuratam Missile And Space Complex (TTMTR)
Object type
Payload
Rocket body
Debris
Shape & HBR
Unknown shape, 0.1 m
Radar Cross Section
Medium (>0.1 m² and <1 m²)

Expand to show TLE details & history
Last TLE update: 2 weeks ago

TLE from 2 weeks ago
0 BREEZE-M DEB
1 48532U 08011DX  26158.23249230  .00001113  00000-0  69985-1 0  9993
2 48532  49.0267  55.2544 6333888 192.4803 138.1830  3.05578921 56884
Epoch: 2026-06-07T05:34Z
TLE epoch observation values (Epoch: 2026-06-07T05:34:47.334Z)
Latitude
0.00004°
Longitude
75.93322°
Altitude
25,111.024 km
Speed
2.334 km/s
True Right ascension
03h 41m 04s
True Declination
0° 00' 00"
Sunlit
Object was in daylight at epoch
Visualization orbit readout
Latitude
Unknown
Longitude
Unknown
Altitude
Unknown
Speed
Unknown
Apparent Right ascension
Unknown
Apparent Declination
Unknown
Sunlit
N/A
Visualization observer readout
Local Sidereal Time
21:25:33
Azimuth
Unknown
Elevation
Unknown
Doppler factor
Unknown
Orbital elements
Apogee altitude
26,387.928 km
Perigee altitude
976.148 km
Semi-major axis
20,060.175 km
Eccentricity
0.63339
Inclination
49.0267°
RAAN
55.2544°
Arg. of periapsis
192.4803°
True anomaly
167.54487°
Mean anomaly
138.183°
Eccentric anomaly
154.05844°
Mean motion
0.76391 °/min
Orbital period
471.26 mins
BSTAR
0.069985
Loading maneuver chart data...
Computing Atmospheric mass density...
Loading historical data...
Loading historical data...
Loading historical data...
Loading historical data...
Loading historical data...
Loading historical data...
Loading historical data...

Documentation

Showing up to 5 results
|